Year,Month,Day,Hour,Minute,Value (Times are PST for temperature in C)
2020,01,26,10,42,10.50
2020,01,26,10,43,10.50
2020,01,26,10,44,10.50
2020,01,26,10,45,10.50
2020,01,26,10,46,10.50
2020,01,26,10,47,10.50
2020,01,26,10,48,10.50
2020,01,26,10,49,10.50
2020,01,26,10,50,10.50
2020,01,26,10,51,10.50
2020,01,26,10,52,10.50
2020,01,26,10,53,10.50
2020,01,26,10,54,10.60
2020,01,26,10,55,10.60
2020,01,26,10,56,10.70
2020,01,26,10,57,10.70
2020,01,26,10,58,10.70
2020,01,26,10,59,10.80
2020,01,26,11,00,10.80
2020,01,26,11,01,10.90
2020,01,26,11,02,10.90
2020,01,26,11,03,10.90
2020,01,26,11,04,10.90
2020,01,26,11,05,10.90
2020,01,26,11,06,10.90
2020,01,26,11,07,10.90
2020,01,26,11,08,10.90
2020,01,26,11,09,10.90
2020,01,26,11,10,10.90
2020,01,26,11,11,11.00
2020,01,26,11,12,11.00
2020,01,26,11,13,11.10
2020,01,26,11,14,11.10
2020,01,26,11,15,11.20
2020,01,26,11,16,11.20
2020,01,26,11,17,11.20
2020,01,26,11,18,11.20
2020,01,26,11,19,11.20
2020,01,26,11,20,11.10
2020,01,26,11,21,11.10
2020,01,26,11,22,11.00
2020,01,26,11,23,11.00
2020,01,26,11,24,10.90
2020,01,26,11,25,10.80
2020,01,26,11,26,10.80
2020,01,26,11,27,10.70
2020,01,26,11,28,10.70
2020,01,26,11,29,10.70
2020,01,26,11,30,10.70
2020,01,26,11,31,10.70
2020,01,26,11,32,10.70
2020,01,26,11,33,10.70
2020,01,26,11,34,10.70
2020,01,26,11,35,10.70
2020,01,26,11,36,10.70
2020,01,26,11,37,10.70
2020,01,26,11,38,10.70
2020,01,26,11,39,10.70
2020,01,26,11,40,10.70
2020,01,26,11,41,10.60
2020,01,26,11,42,10.60
2020,01,26,11,43,10.60
2020,01,26,11,44,10.50
2020,01,26,11,45,10.50
2020,01,26,11,46,10.40
2020,01,26,11,47,10.40
2020,01,26,11,48,10.40
2020,01,26,11,49,10.40
2020,01,26,11,50,10.40
2020,01,26,11,51,10.40
2020,01,26,11,52,10.30
2020,01,26,11,53,10.30
2020,01,26,11,54,10.30
2020,01,26,11,55,10.30
2020,01,26,11,56,10.30
2020,01,26,11,57,10.30
2020,01,26,11,58,10.30
2020,01,26,11,59,10.30
2020,01,26,12,00,10.30
2020,01,26,12,01,10.30
2020,01,26,12,02,10.30
2020,01,26,12,03,10.40
2020,01,26,12,04,10.40
2020,01,26,12,05,10.40
2020,01,26,12,06,10.40
2020,01,26,12,07,10.40
2020,01,26,12,08,10.40
2020,01,26,12,09,10.40
2020,01,26,12,10,10.40
2020,01,26,12,11,10.50
2020,01,26,12,12,10.50
2020,01,26,12,13,10.50
2020,01,26,12,14,10.50
2020,01,26,12,15,10.50
2020,01,26,12,16,10.50
2020,01,26,12,17,10.50
2020,01,26,12,18,10.50
2020,01,26,12,19,10.50
2020,01,26,12,20,10.50
2020,01,26,12,21,10.40
2020,01,26,12,22,10.40
2020,01,26,12,23,10.40
2020,01,26,12,24,10.40
2020,01,26,12,25,10.40
2020,01,26,12,26,10.40
2020,01,26,12,27,10.40
2020,01,26,12,28,10.40
2020,01,26,12,29,10.40
2020,01,26,12,30,10.40
2020,01,26,12,31,10.40
2020,01,26,12,32,10.50
2020,01,26,12,33,10.50
2020,01,26,12,34,10.50
2020,01,26,12,35,10.60
2020,01,26,12,36,10.60
2020,01,26,12,37,10.70
2020,01,26,12,38,10.70
2020,01,26,12,39,10.70
2020,01,26,12,40,10.80
2020,01,26,12,41,10.80
2020,01,26,12,42,10.80
2020,01,26,12,43,10.80
2020,01,26,12,44,10.80
2020,01,26,12,45,10.90
2020,01,26,12,46,10.90
2020,01,26,12,47,10.90
2020,01,26,12,48,10.80
2020,01,26,12,49,10.80
2020,01,26,12,50,10.80
2020,01,26,12,51,10.80
2020,01,26,12,52,10.80
2020,01,26,12,53,10.80
2020,01,26,12,54,10.80
2020,01,26,12,55,10.80
2020,01,26,12,56,10.80
2020,01,26,12,57,10.80
2020,01,26,12,58,10.80
2020,01,26,12,59,10.80
2020,01,26,13,00,10.80
2020,01,26,13,01,10.80
2020,01,26,13,02,10.80
2020,01,26,13,03,10.80
2020,01,26,13,04,10.80
2020,01,26,13,05,10.80
2020,01,26,13,06,10.80
2020,01,26,13,07,10.80
2020,01,26,13,08,10.80
2020,01,26,13,09,10.80
2020,01,26,13,10,10.70
2020,01,26,13,11,10.70
2020,01,26,13,12,10.70
2020,01,26,13,13,10.70
2020,01,26,13,14,10.70
2020,01,26,13,15,10.70
2020,01,26,13,16,10.70
2020,01,26,13,17,10.70
2020,01,26,13,18,10.70
2020,01,26,13,19,10.70
2020,01,26,13,20,10.70
2020,01,26,13,21,10.70
2020,01,26,13,22,10.70
2020,01,26,13,23,10.70
2020,01,26,13,24,10.70
2020,01,26,13,25,10.70
2020,01,26,13,26,10.70
2020,01,26,13,27,10.70
2020,01,26,13,28,10.70
2020,01,26,13,29,10.70
2020,01,26,13,30,10.70
2020,01,26,13,31,10.70
2020,01,26,13,32,10.70
2020,01,26,13,33,10.70
2020,01,26,13,34,10.70
2020,01,26,13,35,10.70
2020,01,26,13,36,10.70
2020,01,26,13,37,10.70
2020,01,26,13,38,10.70
2020,01,26,13,39,10.70
2020,01,26,13,40,10.70
2020,01,26,13,41,10.70
2020,01,26,13,42,10.70
2020,01,26,13,43,10.70
2020,01,26,13,44,10.70
2020,01,26,13,45,10.70
2020,01,26,13,46,10.80
2020,01,26,13,47,10.80
2020,01,26,13,48,10.80
2020,01,26,13,49,10.80
2020,01,26,13,50,10.80
2020,01,26,13,51,10.80
2020,01,26,13,52,10.90
2020,01,26,13,53,10.90
2020,01,26,13,54,10.90
2020,01,26,13,55,10.90
2020,01,26,13,56,10.90
2020,01,26,13,57,11.00
2020,01,26,13,58,11.00
2020,01,26,13,59,11.00
2020,01,26,14,00,11.00
2020,01,26,14,01,11.10
2020,01,26,14,02,11.10
2020,01,26,14,03,11.10
2020,01,26,14,04,11.10
2020,01,26,14,05,11.10
2020,01,26,14,06,11.10
2020,01,26,14,07,11.10
2020,01,26,14,08,11.10
2020,01,26,14,09,11.00
2020,01,26,14,10,11.00
2020,01,26,14,11,11.00
2020,01,26,14,12,10.90
2020,01,26,14,13,10.90
2020,01,26,14,14,10.90
2020,01,26,14,15,10.90
2020,01,26,14,16,10.90
2020,01,26,14,17,10.90
2020,01,26,14,18,11.00
2020,01,26,14,19,11.00
2020,01,26,14,20,11.00
2020,01,26,14,21,11.00
2020,01,26,14,22,11.10
2020,01,26,14,23,11.00
2020,01,26,14,24,11.00
2020,01,26,14,25,11.00
2020,01,26,14,26,11.00
2020,01,26,14,27,11.00
2020,01,26,14,28,11.00
2020,01,26,14,29,11.00
2020,01,26,14,30,11.00
2020,01,26,14,31,11.00
2020,01,26,14,32,11.00
2020,01,26,14,33,11.00
2020,01,26,14,34,11.00
2020,01,26,14,35,10.90
2020,01,26,14,36,10.90
2020,01,26,14,37,10.80
2020,01,26,14,38,10.80
2020,01,26,14,39,10.80
2020,01,26,14,40,10.80
2020,01,26,14,41,10.70
2020,01,26,14,42,10.70
2020,01,26,14,43,10.70
2020,01,26,14,44,10.70
2020,01,26,14,45,10.70
2020,01,26,14,46,10.60
2020,01,26,14,47,10.60
2020,01,26,14,48,10.60
2020,01,26,14,49,10.60
2020,01,26,14,50,10.60
2020,01,26,14,51,10.60
2020,01,26,14,52,10.60
2020,01,26,14,53,10.60
2020,01,26,14,54,10.60
2020,01,26,14,55,10.60
2020,01,26,14,56,10.60
2020,01,26,14,57,10.70
2020,01,26,14,58,10.70
2020,01,26,14,59,10.70
2020,01,26,15,00,10.70
2020,01,26,15,01,10.70
2020,01,26,15,02,10.70
2020,01,26,15,03,10.70
2020,01,26,15,04,10.70
2020,01,26,15,05,10.70
2020,01,26,15,06,10.70
2020,01,26,15,07,10.70
2020,01,26,15,08,10.70
2020,01,26,15,09,10.70
2020,01,26,15,10,10.70
2020,01,26,15,11,10.70
2020,01,26,15,12,10.70
2020,01,26,15,13,10.60
2020,01,26,15,14,10.60
2020,01,26,15,15,10.60
2020,01,26,15,16,10.50
2020,01,26,15,17,10.50
2020,01,26,15,18,10.50
2020,01,26,15,19,10.50
2020,01,26,15,20,10.50
2020,01,26,15,21,10.50
2020,01,26,15,22,10.50
2020,01,26,15,23,10.50
2020,01,26,15,24,10.50
2020,01,26,15,25,10.50
2020,01,26,15,26,10.50
2020,01,26,15,27,10.60
2020,01,26,15,28,10.60
2020,01,26,15,29,10.60
2020,01,26,15,30,10.60
2020,01,26,15,31,10.60
2020,01,26,15,32,10.60
2020,01,26,15,33,10.60
2020,01,26,15,34,10.60
2020,01,26,15,35,10.60
2020,01,26,15,36,10.50
2020,01,26,15,37,10.50
2020,01,26,15,38,10.50
2020,01,26,15,39,10.50
2020,01,26,15,40,10.50
2020,01,26,15,41,10.50
2020,01,26,15,42,10.50
2020,01,26,15,43,10.50
2020,01,26,15,44,10.40
2020,01,26,15,45,10.40
2020,01,26,15,46,10.40
2020,01,26,15,47,10.40
2020,01,26,15,48,10.40
2020,01,26,15,49,10.40
2020,01,26,15,50,10.40
2020,01,26,15,51,10.40
2020,01,26,15,52,10.40
2020,01,26,15,53,10.40
2020,01,26,15,54,10.40
2020,01,26,15,55,10.40
2020,01,26,15,56,10.40
2020,01,26,15,57,10.40
2020,01,26,15,58,10.40
2020,01,26,15,59,10.40
2020,01,26,16,00,10.40
2020,01,26,16,01,10.40
2020,01,26,16,02,10.40
2020,01,26,16,03,10.40
2020,01,26,16,04,10.40
2020,01,26,16,05,10.40
2020,01,26,16,06,10.40
2020,01,26,16,07,10.40
2020,01,26,16,08,10.40
2020,01,26,16,09,10.40
2020,01,26,16,10,10.40
2020,01,26,16,11,10.40
2020,01,26,16,12,10.40
2020,01,26,16,13,10.40
2020,01,26,16,14,10.40
2020,01,26,16,15,10.40
2020,01,26,16,16,10.40
2020,01,26,16,17,10.40
2020,01,26,16,18,10.30
2020,01,26,16,19,10.30
2020,01,26,16,20,10.30
2020,01,26,16,21,10.30
2020,01,26,16,22,10.30
2020,01,26,16,23,10.30
2020,01,26,16,24,10.30
2020,01,26,16,25,10.30
2020,01,26,16,26,10.30
2020,01,26,16,27,10.30
2020,01,26,16,28,10.20
2020,01,26,16,29,10.20
2020,01,26,16,30,10.20
2020,01,26,16,31,10.10
2020,01,26,16,32,10.10
2020,01,26,16,33,10.00
2020,01,26,16,34,10.00
2020,01,26,16,35,9.90
2020,01,26,16,36,9.90
2020,01,26,16,37,9.90
2020,01,26,16,38,9.90
2020,01,26,16,39,9.90
2020,01,26,16,40,9.90
2020,01,26,16,41,9.90
2020,01,26,16,42,9.90
2020,01,26,16,43,9.90
2020,01,26,16,44,9.90
2020,01,26,16,45,9.90
2020,01,26,16,46,9.90
2020,01,26,16,47,9.90
